AGX83K LYBE-LTFM

Flight info

Callsign AGX83K
Flight time N/A
Altitude 41000
Route DONIV DCT ETIDA T390 RILEX
Aircraft MD11/H-SDE1E2E3FGHIJ2J3J4J5M1RWXY/LB1D1

Departure

Time 2026-04-30 22:17
Airport Belgrade Nikola Tesla Airport (LYBE)

Arrival

Time N/A
Airport İstanbul Airport (LTFM)
Time Latitude Longitude Altitude Speed Heading
2026-04-30 21:50 44.81677 20.29401 314 ft 0 kts 80°
2026-04-30 22:03 44.81674 20.29374 313 ft 3 kts 80°
2026-04-30 22:03 44.81670 20.29345 311 ft 3 kts 80°
2026-04-30 22:04 44.81667 20.29316 312 ft 3 kts 80°
2026-04-30 22:04 44.81666 20.29288 312 ft 3 kts 83°
2026-04-30 22:04 44.81663 20.29273 312 ft 0 kts 38°
2026-04-30 22:07 44.81665 20.29275 312 ft 2 kts 37°
2026-04-30 22:07 44.81682 20.29287 315 ft 6 kts 29°
2026-04-30 22:08 44.81735 20.29329 317 ft 12 kts 29°
2026-04-30 22:08 44.81821 20.29402 316 ft 17 kts 31°
2026-04-30 22:08 44.81941 20.29502 315 ft 23 kts 30°
2026-04-30 22:08 44.82071 20.29634 317 ft 13 kts 57°
2026-04-30 22:09 44.82076 20.29664 316 ft 0 kts 83°
2026-04-30 22:09 44.82074 20.29672 316 ft 2 kts 104°
2026-04-30 22:09 44.82062 20.29706 316 ft 7 kts 115°
2026-04-30 22:09 44.82033 20.29775 317 ft 8 kts 121°
2026-04-30 22:10 44.82002 20.29846 316 ft 9 kts 122°
2026-04-30 22:10 44.81964 20.29932 314 ft 11 kts 122°
2026-04-30 22:10 44.81922 20.30028 314 ft 12 kts 122°
2026-04-30 22:10 44.81876 20.30130 315 ft 13 kts 122°
2026-04-30 22:11 44.81777 20.30354 316 ft 14 kts 122°
2026-04-30 22:11 44.81724 20.30473 316 ft 15 kts 122°
2026-04-30 22:11 44.81668 20.30599 317 ft 16 kts 122°
2026-04-30 22:12 44.81609 20.30732 315 ft 17 kts 122°
2026-04-30 22:12 44.81546 20.30876 314 ft 18 kts 122°
2026-04-30 22:12 44.81478 20.31030 316 ft 19 kts 122°
2026-04-30 22:12 44.81408 20.31186 315 ft 18 kts 123°
2026-04-30 22:13 44.81344 20.31330 315 ft 17 kts 121°
2026-04-30 22:13 44.81285 20.31466 313 ft 16 kts 121°
2026-04-30 22:13 44.81230 20.31592 314 ft 14 kts 123°
2026-04-30 22:13 44.81177 20.31704 316 ft 13 kts 123°
2026-04-30 22:14 44.81130 20.31808 315 ft 11 kts 122°
2026-04-30 22:14 44.81091 20.31898 314 ft 10 kts 121°
2026-04-30 22:14 44.81054 20.31986 316 ft 11 kts 121°
2026-04-30 22:14 44.81016 20.32073 314 ft 10 kts 122°
2026-04-30 22:15 44.80993 20.32154 315 ft 7 kts 97°
2026-04-30 22:15 44.81000 20.32211 312 ft 5 kts 68°
2026-04-30 22:15 44.81020 20.32245 314 ft 3 kts 45°
2026-04-30 22:15 44.81045 20.32272 315 ft 4 kts 32°
2026-04-30 22:16 44.81072 20.32285 315 ft 4 kts 13°
2026-04-30 22:16 44.81115 20.32294 315 ft 9 kts
2026-04-30 22:17 44.81288 20.32136 315 ft 14 kts 306°
2026-04-30 22:17 44.81401 20.31899 316 ft 58 kts 304°
2026-04-30 22:17 44.82406 20.29591 974 ft 178 kts 303°
2026-04-30 22:18 44.83071 20.27951 1958 ft 198 kts 303°
2026-04-30 22:18 44.84041 20.24214 4939 ft 210 kts 284°
2026-04-30 22:19 44.84834 20.19987 7075 ft 233 kts 309°
2026-04-30 22:19 44.85924 20.18257 8044 ft 246 kts 318°
2026-04-30 22:19 44.88400 20.14409 9111 ft 273 kts 312°
2026-04-30 22:20 44.89572 20.12290 9617 ft 276 kts 310°
2026-04-30 22:20 44.91799 20.07839 11898 ft 281 kts 308°
2026-04-30 22:20 44.92890 20.05527 13005 ft 285 kts 308°
2026-04-30 22:21 44.93977 20.03162 14125 ft 289 kts 307°
2026-04-30 22:21 44.95064 20.00757 15136 ft 292 kts 306°
2026-04-30 22:21 44.96156 19.98312 16158 ft 296 kts 306°
2026-04-30 22:21 44.97251 19.95838 17197 ft 299 kts 305°
2026-04-30 22:22 44.98342 19.93316 18186 ft 304 kts 301°
2026-04-30 22:22 44.99010 19.90469 19076 ft 313 kts 277°
2026-04-30 22:22 44.98696 19.87421 19807 ft 331 kts 253°
2026-04-30 22:22 44.97455 19.84512 20031 ft 361 kts 230°
2026-04-30 22:23 44.95438 19.82322 20728 ft 373 kts 210°
2026-04-30 22:23 44.93038 19.80809 21465 ft 381 kts 203°
2026-04-30 22:23 44.90556 19.79424 22232 ft 386 kts 204°
2026-04-30 22:23 44.88073 19.77912 22988 ft 391 kts 206°
2026-04-30 22:24 44.85609 19.76232 23717 ft 396 kts 208°
2026-04-30 22:24 44.83134 19.74487 24299 ft 401 kts 204°
2026-04-30 22:24 44.80424 19.73528 24942 ft 405 kts 186°
2026-04-30 22:24 44.77599 19.73686 25559 ft 409 kts 171°
2026-04-30 22:25 44.74805 19.74551 26088 ft 414 kts 165°
2026-04-30 22:25 44.72016 19.75621 26632 ft 417 kts 164°
2026-04-30 22:25 44.69200 19.76698 27159 ft 420 kts 163°
2026-04-30 22:25 44.66455 19.78221 27370 ft 431 kts 149°
2026-04-30 22:26 44.62124 19.84210 27640 ft 452 kts 118°
2026-04-30 22:26 44.60760 19.88213 28004 ft 457 kts 109°
2026-04-30 22:26 44.59606 19.92387 28519 ft 460 kts 109°
2026-04-30 22:27 44.58404 19.96550 29276 ft 461 kts 111°
2026-04-30 22:27 44.57087 20.00662 29922 ft 463 kts 114°
2026-04-30 22:27 44.54171 20.08733 30885 ft 465 kts 117°
2026-04-30 22:28 44.51088 20.16714 31959 ft 466 kts 118°
2026-04-30 22:28 44.49532 20.20706 32495 ft 467 kts 118°
2026-04-30 22:29 44.44908 20.32764 33860 ft 472 kts 114°
2026-04-30 22:29 44.43902 20.37128 34304 ft 471 kts 99°
2026-04-30 22:30 44.47224 20.53773 35824 ft 450 kts 45°
2026-04-30 22:31 44.53132 20.63964 37007 ft 451 kts 52°
2026-04-30 22:32 44.58052 20.75248 38053 ft 453 kts 57°
2026-04-30 22:32 44.61152 20.82930 38567 ft 453 kts 57°
2026-04-30 22:33 44.65785 20.94384 38977 ft 447 kts 57°
2026-04-30 22:33 44.68797 21.02045 39189 ft 451 kts 61°
2026-04-30 22:34 44.70608 21.15095 39518 ft 469 kts 97°
2026-04-30 22:35 44.68358 21.23688 39776 ft 474 kts 124°
2026-04-30 22:36 44.59694 21.35257 40533 ft 471 kts 143°
2026-04-30 22:36 44.57143 21.38139 40756 ft 471 kts 143°
2026-04-30 22:37 44.49580 21.46995 41211 ft 473 kts 141°
2026-04-30 22:37 44.47081 21.49985 41241 ft 472 kts 141°
2026-04-30 22:38 44.37082 21.61951 41228 ft 473 kts 142°
2026-04-30 22:39 44.29565 21.70897 41254 ft 473 kts 142°